Date String (YYYY-MM-DD hh:mm:ss) UTC,Instrument flags,Ambient pressure (hPa),Sample flow (lpm),Bypass flow (lpm),Sample temperature (°C),Ambient temperature (°C),ASC tube jacket temperature (°C),LED temperature (°C),Box temperature (°C),Sample RH (%),Span deviation,Mass concentration (μg/m³),Mass concentration (μg/m³),Mass concentration (μg/m³)
DateTimeUTC,F1_M11,P_M11,Q1_M11,Q2_M11,T1_M11,T2_M11,T3_M11,T4_M11,T5_M11,U1_M11,ZSPAN_M11,X0_M11,X2_M11,X1_M11
2021-08-25 13:00:00,,0834.1,4.99,0.00,30.0,29.3,00.0,39.1,31.8,26.4,0001.8,0023.07,0017.05,0015.85
2021-08-25 13:01:00,,0834.1,5.00,0.00,30.0,29.1,00.0,39.1,31.8,26.4,0001.9,0023.00,0016.99,0015.81
2021-08-25 13:02:00,,0834.1,5.00,0.00,30.0,27.3,00.0,39.1,31.3,26.3,0002.1,0022.96,0016.95,0015.78
2021-08-25 13:03:00,,0834.0,5.01,0.00,29.8,26.4,00.0,39.1,31.1,26.4,0002.0,0023.24,0016.92,0015.77
2021-08-25 13:04:00,,0834.1,5.00,0.00,29.7,26.6,00.0,39.0,31.1,26.4,0002.0,0023.36,0016.93,0015.77
2021-08-25 13:05:00,,0834.1,5.00,0.00,29.7,27.0,00.0,39.0,31.2,26.4,0002.0,0024.22,0016.85,0015.73
2021-08-25 13:06:00,,0834.1,4.99,0.00,29.7,27.3,00.0,38.9,31.2,26.3,0002.1,0025.47,0016.72,0015.63
2021-08-25 13:07:00,,0834.1,5.02,0.00,29.6,27.6,00.0,38.9,31.3,26.1,0002.2,0025.74,0016.62,0015.52
2021-08-25 13:08:00,,0834.1,4.99,0.00,29.6,27.8,00.0,38.9,31.3,26.1,0002.2,0026.44,0016.54,0015.45
2021-08-25 13:09:00,,0834.1,5.01,0.00,29.6,28.0,00.0,38.9,31.3,26.1,0002.1,0026.83,0016.52,0015.38
2021-08-25 13:10:00,,0834.2,4.99,0.00,29.6,28.2,00.0,38.9,31.3,26.4,0002.3,0026.78,0016.38,0015.29
2021-08-25 13:11:00,,0834.1,5.01,0.00,29.6,28.3,00.0,38.9,31.3,26.5,0002.3,0026.29,0016.36,0015.26
2021-08-25 13:12:00,,0834.2,4.99,0.00,29.6,28.4,00.0,38.8,31.4,26.5,0002.2,0026.55,0016.41,0015.28
2021-08-25 13:13:00,,0834.1,5.00,0.00,29.7,28.5,00.0,38.8,31.4,26.8,0002.1,0027.37,0016.41,0015.28
2021-08-25 13:14:00,,0834.1,5.01,0.00,29.7,28.6,00.0,38.8,31.4,27.0,0002.1,0026.89,0016.40,0015.27
2021-08-25 13:15:00,,0834.1,5.01,0.00,29.7,28.6,00.0,38.8,31.4,27.0,0002.1,0026.81,0016.39,0015.27
2021-08-25 13:16:00,,0834.2,4.99,0.00,29.7,28.7,00.0,38.8,31.5,26.8,0002.1,0025.91,0016.47,0015.32
2021-08-25 13:17:00,,0834.2,5.00,0.00,29.7,28.7,00.0,38.8,31.5,26.8,0002.1,0024.49,0016.56,0015.40
2021-08-25 13:18:00,,0834.3,5.01,0.00,29.7,28.8,00.0,38.9,31.6,26.5,0002.0,0025.13,0016.66,0015.47
2021-08-25 13:19:00,,0834.3,5.00,0.00,29.8,28.8,00.0,38.9,31.6,26.5,0002.0,0025.05,0016.69,0015.48
2021-08-25 13:20:00,,0834.3,5.01,0.00,29.8,28.9,00.0,38.9,31.6,26.6,0002.0,0024.65,0016.67,0015.51
2021-08-25 13:21:00,,0834.3,4.99,0.00,29.8,29.0,00.0,38.9,31.6,26.8,0002.0,0024.55,0016.69,0015.52
2021-08-25 13:22:00,,0834.3,5.00,0.00,29.8,29.0,00.0,38.9,31.6,26.8,0002.1,0025.72,0016.67,0015.52
2021-08-25 13:23:00,,0834.3,5.00,0.00,29.9,29.0,00.0,38.9,31.7,26.7,0002.1,0025.75,0016.64,0015.50
2021-08-25 13:24:00,,0834.3,5.02,0.00,29.9,29.1,00.0,38.9,31.7,26.4,0002.4,0025.81,0016.60,0015.47
2021-08-25 13:25:00,,0834.3,5.00,0.00,29.9,29.1,00.0,39.0,31.8,26.4,0002.5,0026.24,0016.58,0015.44
2021-08-25 13:26:00,,0834.3,4.99,0.00,29.9,29.1,00.0,39.0,31.8,26.6,0002.5,0026.92,0016.60,0015.42
2021-08-25 13:27:00,,0834.3,4.99,0.00,30.0,29.1,00.0,39.0,31.8,26.8,0002.6,0029.13,0016.64,0015.40
2021-08-25 13:28:00,,0834.3,4.99,0.00,30.0,29.2,00.0,39.0,31.8,26.9,0002.7,0030.65,0016.71,0015.40
2021-08-25 13:29:00,,0834.3,5.01,0.00,30.0,29.2,00.0,39.0,31.8,26.9,0002.6,0030.14,0016.76,0015.41
2021-08-25 13:30:00,,0834.4,5.01,0.00,30.0,29.2,00.0,39.0,31.9,26.5,0002.6,0029.42,0016.78,0015.42
2021-08-25 13:31:00,,0834.4,5.00,0.00,30.0,29.3,00.0,39.1,31.9,26.8,0002.6,0029.94,0016.81,0015.41
2021-08-25 13:32:00,,0834.4,4.99,0.00,30.1,29.3,00.0,39.1,31.9,26.9,0002.7,0030.40,0016.84,0015.41
2021-08-25 13:33:00,,0834.4,5.00,0.00,30.1,29.3,00.0,39.1,31.9,27.0,0002.7,0029.58,0016.90,0015.43
2021-08-25 13:34:00,,0834.4,4.99,0.00,30.1,29.4,00.0,39.1,32.0,27.4,0002.5,0028.88,0016.98,0015.46
2021-08-25 13:35:00,,0834.4,5.00,0.00,30.1,29.4,00.0,39.2,32.0,27.5,0002.3,0028.87,0017.08,0015.52
2021-08-25 13:36:00,,0834.4,4.99,0.00,30.2,29.4,00.0,39.2,32.0,27.2,0002.5,0029.97,0017.19,0015.61
2021-08-25 13:37:00,,0834.3,5.01,0.00,30.2,29.5,00.0,39.2,32.0,27.0,0002.4,0029.56,0017.27,0015.70
2021-08-25 13:38:00,,0834.4,4.99,0.00,30.2,29.5,00.0,39.2,32.0,27.0,0002.3,0028.05,0017.32,0015.80
2021-08-25 13:39:00,,0834.4,4.99,0.00,30.2,29.5,00.0,39.2,32.1,27.4,0002.3,0027.07,0017.32,0015.86
2021-08-25 13:40:00,,0834.4,5.01,0.00,30.3,29.5,00.0,39.3,32.1,26.9,0002.4,0027.01,0017.36,0015.93
2021-08-25 13:41:00,,0834.4,5.00,0.00,30.3,29.4,00.0,39.3,32.0,26.8,0002.5,0029.20,0017.43,0016.03
2021-08-25 13:42:00,,0834.4,5.00,0.00,30.2,27.9,00.0,39.3,31.7,27.0,0002.4,0028.76,0017.49,0016.14
2021-08-25 13:43:00,,0834.5,5.00,0.00,30.1,26.3,00.0,39.2,31.2,27.3,0002.4,0028.66,0017.56,0016.22
2021-08-25 13:44:00,,0834.4,5.01,0.00,29.9,26.2,00.0,39.2,31.2,27.3,0002.3,0029.12,0017.57,0016.27
2021-08-25 13:45:00,,0834.5,4.99,0.00,29.8,26.7,00.0,39.1,31.2,27.3,0002.4,0029.56,0017.55,0016.29
2021-08-25 13:46:00,,0834.5,5.00,0.00,29.8,27.1,00.0,39.1,31.2,27.6,0002.3,0029.40,0017.52,0016.31
2021-08-25 13:47:00,,0834.4,5.01,0.00,29.8,27.5,00.0,39.1,31.3,27.7,0002.2,0027.91,0017.45,0016.30
2021-08-25 13:48:00,,0834.4,5.01,0.00,29.8,27.8,00.0,39.0,31.4,27.7,0002.3,0028.09,0017.42,0016.26
2021-08-25 13:49:00,,0834.5,5.00,0.00,29.8,28.1,00.0,39.0,31.4,27.4,0002.2,0027.76,0017.38,0016.19
2021-08-25 13:50:00,,0834.4,5.00,0.00,29.8,28.3,00.0,39.0,31.4,27.3,0002.2,0027.77,0017.37,0016.15
2021-08-25 13:51:00,,0834.4,4.99,0.00,29.8,28.4,00.0,39.0,31.5,27.3,0002.2,0027.94,0017.31,0016.10
2021-08-25 13:52:00,,0834.5,5.01,0.00,29.8,28.6,00.0,39.0,31.6,27.4,0002.2,0026.88,0017.29,0016.05
2021-08-25 13:53:00,,0834.5,5.00,0.00,29.9,28.7,00.0,39.0,31.6,27.4,0002.2,0028.60,0017.28,0016.01
2021-08-25 13:54:00,,0834.6,5.00,0.00,29.9,28.8,00.0,39.0,31.7,27.6,0002.1,0029.01,0017.24,0015.98
2021-08-25 13:55:00,,0834.5,5.00,0.00,29.9,28.9,00.0,39.0,31.7,27.5,0002.1,0028.82,0017.24,0015.96
2021-08-25 13:56:00,,0834.5,4.99,0.00,29.9,28.9,00.0,39.0,31.7,27.4,0002.3,0028.11,0017.20,0015.93
2021-08-25 13:57:00,,0834.5,5.01,0.00,29.9,29.0,00.0,39.0,31.7,27.5,0002.5,0028.39,0017.20,0015.89
2021-08-25 13:58:00,,0834.5,4.99,0.00,30.0,29.0,00.0,39.0,31.8,27.3,0002.5,0028.92,0017.25,0015.87
2021-08-25 13:59:00,,0834.5,5.00,0.00,30.0,29.1,00.0,39.1,31.8,27.3,0002.5,0029.30,0017.22,0015.84
